SVR0301 HEMA-HEGN

Flight info

Callsign SVR0301
Flight time 0h 23m
Altitude 10000
Route MAK V730 HGD
Aircraft A320/M-SDE3FGHIRWY/LB1

Departure

Time 2026-04-30 13:19
Airport Marsa Alam International Airport (HEMA)

Arrival

Time 2026-04-30 13:43
Airport Hurghada International Airport (HEGN)
Time Latitude Longitude Altitude Speed Heading
2026-04-30 13:03 25.55513 34.59066 242 ft 0 kts 60°
2026-04-30 13:11 25.55502 34.59045 242 ft 4 kts 62°
2026-04-30 13:11 25.55490 34.59018 242 ft 4 kts 71°
2026-04-30 13:12 25.55486 34.58991 242 ft 4 kts 110°
2026-04-30 13:12 25.55491 34.58980 242 ft 0 kts 148°
2026-04-30 13:15 25.55414 34.59029 242 ft 10 kts 151°
2026-04-30 13:15 25.55371 34.59056 242 ft 11 kts 149°
2026-04-30 13:16 25.55269 34.59123 242 ft 14 kts 150°
2026-04-30 13:16 25.55203 34.59118 242 ft 16 kts 220°
2026-04-30 13:16 25.55142 34.59020 252 ft 13 kts 227°
2026-04-30 13:17 25.54954 34.59096 255 ft 19 kts 148°
2026-04-30 13:17 25.54829 34.59178 251 ft 22 kts 150°
2026-04-30 13:17 25.54609 34.59211 252 ft 14 kts 237°
2026-04-30 13:18 25.54578 34.59124 254 ft 11 kts 277°
2026-04-30 13:18 25.54615 34.59082 254 ft 0 kts 328°
2026-04-30 13:18 25.54617 34.59081 254 ft 4 kts 328°
2026-04-30 13:19 25.54828 34.58946 259 ft 73 kts 330°
2026-04-30 13:19 25.55471 34.58534 256 ft 137 kts 330°
2026-04-30 13:19 25.56394 34.57943 630 ft 158 kts 334°
2026-04-30 13:19 25.57345 34.57333 1405 ft 157 kts 332°
2026-04-30 13:20 25.58317 34.56709 1934 ft 170 kts 331°
2026-04-30 13:20 25.59407 34.56005 2267 ft 193 kts 330°
2026-04-30 13:20 25.60633 34.55210 2627 ft 215 kts 329°
2026-04-30 13:20 25.62000 34.54326 3077 ft 240 kts 328°
2026-04-30 13:21 25.63494 34.53363 3823 ft 253 kts 328°
2026-04-30 13:21 25.65011 34.52390 4761 ft 257 kts 327°
2026-04-30 13:21 25.66568 34.51384 5696 ft 261 kts 327°
2026-04-30 13:22 25.69751 34.49341 7571 ft 268 kts 327°
2026-04-30 13:22 25.71372 34.48296 8500 ft 271 kts 328°
2026-04-30 13:22 25.74688 34.46156 10197 ft 283 kts 328°
2026-04-30 13:23 25.76455 34.45014 10504 ft 306 kts 328°
2026-04-30 13:23 25.80411 34.42582 11383 ft 338 kts 336°
2026-04-30 13:24 25.85108 34.41787 11910 ft 349 kts
2026-04-30 13:24 25.89964 34.42706 13297 ft 357 kts
2026-04-30 13:25 25.94919 34.43576 13893 ft 366 kts
2026-04-30 13:25 26.00167 34.43605 13921 ft 383 kts 347°
2026-04-30 13:26 26.07843 34.41301 13923 ft 383 kts 342°
2026-04-30 13:26 26.12980 34.39731 13923 ft 383 kts 343°
2026-04-30 13:27 26.18116 34.38158 13921 ft 383 kts 342°
2026-04-30 13:28 26.25815 34.35778 13918 ft 383 kts 342°
2026-04-30 13:28 26.30950 34.34185 13917 ft 382 kts 342°
2026-04-30 13:28 26.33512 34.33392 13915 ft 382 kts 342°
2026-04-30 13:29 26.38607 34.31811 13924 ft 383 kts 342°
2026-04-30 13:29 26.43638 34.30250 13585 ft 363 kts 342°
2026-04-30 13:30 26.50806 34.28028 12811 ft 352 kts 342°
2026-04-30 13:31 26.55505 34.26562 12313 ft 349 kts 342°
2026-04-30 13:31 26.62445 34.24401 11909 ft 346 kts 342°
2026-04-30 13:32 26.67060 34.22963 11907 ft 336 kts 342°
2026-04-30 13:32 26.71318 34.21639 11905 ft 300 kts 342°
2026-04-30 13:33 26.75145 34.20445 11907 ft 271 kts 342°
2026-04-30 13:33 26.78567 34.19380 11907 ft 243 kts 341°
2026-04-30 13:34 26.80162 34.18883 11902 ft 234 kts 340°
2026-04-30 13:34 26.84664 34.17032 11660 ft 234 kts 324°
2026-04-30 13:35 26.86025 34.15997 11227 ft 239 kts 324°
2026-04-30 13:35 26.88835 34.13872 10396 ft 248 kts 324°
2026-04-30 13:36 26.91735 34.11685 9531 ft 255 kts 324°
2026-04-30 13:36 26.93205 34.10578 9152 ft 254 kts 324°
2026-04-30 13:36 26.95969 34.08149 8320 ft 252 kts 306°
2026-04-30 13:37 26.96811 34.06434 7895 ft 252 kts 289°
2026-04-30 13:37 26.97756 34.02636 7040 ft 254 kts 285°
2026-04-30 13:38 26.98696 33.98824 6178 ft 253 kts 285°
2026-04-30 13:38 26.99160 33.96949 5748 ft 252 kts 285°
2026-04-30 13:38 27.00089 33.93185 4894 ft 248 kts 286°
2026-04-30 13:39 27.00966 33.89622 4085 ft 227 kts 288°
2026-04-30 13:39 27.01857 33.86219 3314 ft 226 kts 298°
2026-04-30 13:40 27.02813 33.84850 2818 ft 226 kts 324°
2026-04-30 13:40 27.04223 33.84114 2418 ft 223 kts 345°
2026-04-30 13:40 27.05710 33.83679 2105 ft 218 kts 346°
2026-04-30 13:40 27.07147 33.83258 1830 ft 214 kts 346°
2026-04-30 13:41 27.08550 33.82844 1563 ft 200 kts 347°
2026-04-30 13:41 27.09853 33.82459 1320 ft 186 kts 348°
2026-04-30 13:41 27.11060 33.82103 1114 ft 172 kts 347°
2026-04-30 13:41 27.12163 33.81777 890 ft 153 kts 348°
2026-04-30 13:42 27.13130 33.81491 682 ft 134 kts 349°
2026-04-30 13:42 27.14008 33.81232 509 ft 129 kts 348°
2026-04-30 13:42 27.15675 33.80741 184 ft 121 kts 351°
2026-04-30 13:43 27.16486 33.80502 49 ft 115 kts 348°
2026-04-30 13:43 27.17099 33.80329 49 ft 68 kts 344°
2026-04-30 13:43 27.17455 33.80219 54 ft 45 kts 344°
2026-04-30 13:43 27.17728 33.80137 51 ft 36 kts 345°
2026-04-30 13:44 27.17949 33.80066 53 ft 31 kts 341°
2026-04-30 13:44 27.18151 33.80007 50 ft 28 kts 348°
2026-04-30 13:44 27.18328 33.79957 48 ft 25 kts 345°
2026-04-30 13:44 27.18452 33.79977 50 ft 18 kts 59°
2026-04-30 13:45 27.18437 33.80100 50 ft 14 kts 151°
2026-04-30 13:45 27.18326 33.80134 51 ft 20 kts 167°
2026-04-30 13:45 27.18215 33.80163 50 ft 16 kts 163°
2026-04-30 13:46 27.18172 33.80240 56 ft 11 kts 74°
2026-04-30 13:46 27.18199 33.80330 52 ft 15 kts 73°
2026-04-30 13:46 27.18166 33.80429 57 ft 16 kts 159°
2026-04-30 13:46 27.18090 33.80452 51 ft 0 kts 161°
2026-04-30 13:47 27.18087 33.80453 52 ft 0 kts 161°
2026-04-30 13:47 27.18061 33.80462 55 ft 5 kts 166°
2026-04-30 13:47 27.18038 33.80508 53 ft 10 kts 74°
2026-04-30 13:47 27.18063 33.80569 57 ft 6 kts 65°
2026-04-30 13:48 27.18068 33.80580 57 ft 1 kts 65°
2026-04-30 13:48 27.18071 33.80588 53 ft 0 kts 65°
2026-04-30 13:48 27.18071 33.80589 53 ft 0 kts 65°
2026-04-30 13:48 27.18071 33.80588 53 ft 0 kts 65°